Regional Weather Roundup
Issued by NWS Wakefield, VA

Home | Current Version | Previous Version | Graphics & Text | Print | Product List | Glossary On
Versions: 1 2 3 4 5 6 7 8 9 10 11 12 13 14 15 16 17 18 19 20 21 22 23 24 25 26 27 28 29 30 31 32 33 34 35 36 37 38 39 40 41 42 43 44 45 46 47 48 49 50
000
ASUS41 KAKQ 220610
RWRAKQ

REGIONAL WEATHER ROUNDUP
NATIONAL WEATHER SERVICE WAKEFIELD VA
200 AM EDT TUE JUL 22 2014

Note: "fair" indicates few or no clouds below 12,000 feet with no
significant weather and/or obstructions to visibility. * = Denotes
station may not report precipitation (e.g., rain,snow,etc.),
thunder or fog.

VAZ042-051-052>054-056-220700-
NORTHERN VIRGINIA

CITY           SKY/WX    TMP DP  RH WIND       PRES   REMARKS
WASH NATIONAL  MOCLDY    75  68  78 SW5       30.18S
DULLES         PTCLDY    71  68  90 S3        30.18S
FORT BELVOIR   PTCLDY    72  68  88 S3        30.18S
QUANTICO       MOCLDY    75  70  84 SW7       30.18S
FREDERICKSBRG* PTCLDY    72  72  99 CALM      30.17S
STAFFORD*      MOCLDY    71  71 100 CALM      30.22S
WARRENTON      CLOUDY    72  72 100 S3        30.18S
CULPEPER*      MOCLDY   N/A N/A N/A CALM      30.18F
MANASSAS*      PTCLDY    70  70 100 CALM      30.18S
LEESBURG*      PTCLDY    72  70  94 S5        30.19S
WINCHESTER     PTCLDY    70  68  94 SE3       30.17F
$$

VAZ048-049-060>072-079>083-220700-
CENTRAL AND SOUTH CENTRAL VIRGINIA...AND NORTH CENTRAL NORTH CAROLINA

CITY           SKY/WX    TMP DP  RH WIND       PRES   REMARKS
RICHMOND       MOCLDY    72  69  90 CALM      30.17F
CHESTERFIELD*  PTCLDY   N/A N/A N/A SE3       30.19F
HANOVER        PTCLDY    69  67  93 CALM      30.19F FOG
TAPPAHANNOCK*  CLOUDY    70  67  89 CALM      30.18F
CHARLOTTSVILLE CLOUDY    73  70  90 S5        30.18F
ORANGE*        CLOUDY    72  70  94 CALM      30.20S
LOUISA*        MOCLDY    72  70  94 CALM      30.17S
FARMVILLE*     CLOUDY    73  73 100 CALM      30.16S
SOUTH HILL*    FOG       73  73 100 CALM      30.22F VSB 1
ROANOKE RAPIDS CLOUDY    64  63  94 CALM      30.16S FOG
RALEIGH        CLOUDY    72  70  93 CALM      30.15F FOG
$$

VAZ088>098-220700-
SOUTHEAST VIRGINIA

CITY           SKY/WX    TMP DP  RH WIND       PRES   REMARKS
NORFOLK        MOCLDY    74  70  87 CALM      30.16F
VIRGINIA BEACH MOCLDY    73  71  93 CALM      30.15F
NORFOLK NAVAL  MOCLDY    74  70  87 CALM      30.17F
WEST POINT*    MOCLDY    73  69  87 NE3       30.19S
NEWPORT NEWS   PTCLDY    73  68  84 CALM      30.16F
LANGLEY AFB    CLOUDY    72  72 100 CALM      30.16F
FORT EUSTIS    PTCLDY    72  72 100 CALM      30.15F
WILLIAMSBURG*  PTCLDY    73  72  94 CALM      30.17F
FRANKLIN*      PTCLDY    68 N/A N/A CALM      30.17S
WAKEFIELD      PTCLDY    69  66  90 CALM      30.16F
$$

VAZ020-022-025-037-045-220700-
WESTERN AND SOUTHWEST VIRGINIA

CITY           SKY/WX    TMP DP  RH WIND       PRES   REMARKS
STAUNTON*      RAIN      71  68  91 SE7       30.21F
HOT SPRINGS VA CLOUDY    62  60  95 S6        30.31S FOG
LYNCHBURG      CLOUDY    71  70  96 S5        30.20S
DANVILLE       MOCLDY    72  70  93 CALM      30.17S
MARTINSVILLE   CLOUDY    71  70  98 CALM      30.20F FOG
ROANOKE        CLOUDY    72  68  87 SE3       30.21S
BLACKSBURG     CLOUDY    70  70 100 CALM      30.25S
DUBLIN*        CLOUDY    70  70 100 CALM      30.24S
MARION*        CLOUDY    67  67 100 E3        30.25S
HILLSVILLE*    CLOUDY    67  66  95 E5        30.24F
RICHLANDS*     MOCLDY    71  65  84 SE5       30.21F
WISE*          PTCLDY    70  63  78 S6        30.22S
ABINGDON*      MOCLDY    72  66  82 E3        30.19S
$$

MDZ021>025-VAZ099-100-220700-
SOUTHERN MARYLAND AND THE DELMARVA PENINSULA

CITY           SKY/WX    TMP DP  RH WIND       PRES   REMARKS
PATUXENT RIVER PTCLDY    70  67  90 CALM      30.17F
BAY BRIDGE APT   N/A     73  70  88 S6        30.17F
LEONARDTOWN      N/A    N/A N/A N/A MISG        N/A
DOVER          PTCLDY    67  66  97 S3        30.16F
GEORGETOWN     PTCLDY    66  63  90 S7        30.18F
EASTON         MOCLDY    73  73 100 S5        30.21F
CAMBRIDGE      PTCLDY    72  68  88 CALM      30.17F
SALISBURY      NOT AVBL
OCEAN CITY     MOCLDY    64  63  96 CALM      30.18S
WALLOPS ISLAND MOCLDY    70  68  93 CALM      30.18S
ACCOMACK*        N/A     68  64  88 CALM      30.17F FOG
$$

NCZ012>017-030>032-220700-
EASTERN NORTH CAROLINA

CITY           SKY/WX    TMP DP  RH WIND       PRES   REMARKS
ELIZABETH CITY CLOUDY    74  71  91 E3        30.16S
AHOSKIE*       PTCLDY    71  69  94 CALM      30.16F
EDENTON*       CLOUDY    72  71  96 NE3       30.15S
CURRITUCK*     CLOUDY    75  70  83 CALM      30.16F
KILL DEVIL HLS CLOUDY    75  73  93 E5        30.14S
MANTEO         NOT AVBL
CAPE HATTERAS  MOCLDY    75  74  96 E5        30.13F
GOLDSBORO      MOCLDY    74  74  99 E5        30.11F
WASHINGTON     CLOUDY    71  70  95 NE3       30.14F
GREENVILLE     MOCLDY    72  70  94 NE3       30.15F
NEW BERN       CLOUDY    76  73  91 NE3       30.13F
WILMINGTON     MOCLDY    75  73  93 N3        30.11S
$$

VAZ048-220700-
ELSEWHERE

CITY           SKY/WX    TMP DP  RH WIND       PRES   REMARKS
HARRISBURG PA  MOCLDY    73  66  78 E3        30.16F
BALTIMORE      PTCLDY    71  67  87 CALM      30.17S
ANNAPOLIS      PTCLDY    74  69  85 S3        30.17S
ANDREWS AFB    PTCLDY    69  68  97 S6        30.18S
WILMINGTON DE  CLEAR     71  64  78 CALM      30.19S
PHILADELPHIA   CLEAR     71  60  68 SW5       30.18F
WILDWOOD NJ*   PTCLDY    64  61  88 CALM      30.19S
ATLANTIC CITY  CLEAR     63  61  93 CALM      30.17F
HENDERSON NC   CLOUDY    72  70  95 CALM      30.17F FOG
GREENSBORO     MOCLDY    71  70  96 SE6       30.16F
ROCKY MOUNT    CLOUDY    73  70  90 NE3       30.14F
FAYETTEVILLE   CLOUDY    73  71  93 NE6       30.12F
CHARLOTTE      CLOUDY    73  68  84 E5        30.15S
$$

VAZ100-220700-
MARINE

STATION/POSITION TIME  TEMP    WIND        PRES    WAVE   SWELL
                       AIR SEA DIR/SP/G            HT/PER HT/PER
                 (UTC) (F)     (DEG/KT/KT) (MB)    (FT/S) (FT/S)
44066 TX TWR #4  0600   70 72  300/  4/  4 1021.5F   3/ 7   3/ 7
CAPE MAY NJ      0600   69 74  190/  1/  2 1021.7F
LEWES DE         0600   69 69  230/  2/  2 1021.5F
15NM E FENWICK I 0600   73 75              1021.8F   3/ 7
OCEAN-CITY-INLET 0600   69 71   CALM  /  1 1021.4F
WACHAPREAGUE VA  0600   72 79   CALM  /  1 1021.5S
THOMAS POINT MD  0600   75 79  180/ 13/ 14 1022.0F
GOOSES REEF MD   0600   76     220/ 10/ 12 1022.1S
COVE POINT MD    0600   74     220/  7/  7 1021.7S
SOLOMONS ISLAND  0600      81                N/A
BISHOPS HEAD MD  0600   74 79  200/  5/  5 1021.4F
PINEY POINT MD   0600          210/  6/  7   N/A
POTOMAC MD       0600   75     190/  6/  8 1021.1S
CAMBRIDGE MD     0600   71 80   CALM  /  2 1021.5F
LEWISETTA VA     0600   73 80  230/  1/  2 1021.5F
RAPPAHANNOCK LGT 0600          140/  5/  6 1022.1F
STINGRAY PT      0600   75     160/  6/  8 1020.9S
YORK RVR RNG VA  0600   75     140/  5/  7 1021.0S
YORKTOWN VA      0600   75 80  160/  3/  4 1021.2F
JAMESTOWN VA     0600   73     100/  4/  4   N/A
DOMINION TERM VA 0600   75     100/  5/  7 1021.4F
KIPTOPEKE VA     0600      78   90/  4/  4   N/A
CHES BAY BRIDGE  0600   75 78   70/  5/  6 1020.8F
CAPE HENRY VA    0600   74     140/  3/  3 1020.3S
WILLOUBY STN VA  0600          120/  4/  5 1020.7R
S CRANEY ISL VA  0600           60/  3/  4 1021.4F
CAPE HENRY BUOY  0600      76                N/A     3/ 8
1ST LANDING BUOY 0600   75      60/  4/  6 1021.1S
CAPE CHARLES BUO 0600      74                N/A     2/ 8
OFFSHORE WE BUOY 0600      76                N/A     3/ 8
64NM E OF VA BCH 0600   76 77   80/  4/  6 1020.8F   3/ 8   3/ 8
DUCK PIER NC     0600   75 75   80/  7/  8 1020.3F
44056 DUCK FRF   0500                        N/A     2/ 7
OREGON INLET NC  0600   76 77   60/  5/  8 1020.7R
HATTERAS NC      0600   76 81   70/  5/  7 1020.5S
DIAMOND SHLS NC  0600          VRB  2/  4  1020.0F   4/ 6   3/ 6
CAPE LOOKOUT NC  0500   79     210/  3/  4 1019.5F
$$



USA.gov is the U.S. government's official web portal to all federal, state and local government web resources and services.